Location: Eaton
(41.3139°N, 82.0207°W)
Time: 13:21:14
(UTC+00:00)

Meteor 2-10 Rocket - Pass Details

Date: 17 June 2021
Orbit: 733 x 885 km, 81.2° (Epoch: 30 July)

Event Time Altitude Azimuth Distance (km) Brightness Sun altitude
Rises 04:14:08 0° 349° (N) 3,222 8.2 -23.0°
Reaches altitude 10° 04:16:31 10° 350° (N) 2,277 7.0 -23.2°
Maximum altitude 04:21:36 87° 263° (W) 744 3.3 -23.4°
Enters shadow 04:22:21 65° 178° (S) 807 3.3 -23.5°
